This is the latest recevied weather packets stored in our database for station/object DL1NUX-15. If no packets are shown the sender has not sent any weather packets the latest 10 day(s).
| Time | Temp. | Humidity | Pressure | Rain* | Wind** | Luminosity | Snow |
|---|---|---|---|---|---|---|---|
| 1777430131 | 6.67° C | 49% | 1024.1 hPa | 0 mm | - | 0 W/m² | - |
| 1777429532 | 6.67° C | 49% | 1024 hPa | 0 mm | - | 0 W/m² | - |
| 1777423520 | 7.78° C | 45% | 1024 hPa | 0 mm | - | 0 W/m² | - |
| 1777422920 | 7.78° C | 44% | 1023.8 hPa | 0 mm | - | 0 W/m² | - |
| 1777422320 | 7.78° C | 44% | 1023.9 hPa | 0 mm | - | 0 W/m² | - |
| 1777421721 | 8.33° C | 43% | 1024 hPa | 0 mm | - | 0 W/m² | - |
| 1777420522 | 8.33° C | 43% | 1024.2 hPa | 0 mm | - | 0 W/m² | - |
| 1777418723 | 8.89° C | 42% | 1024 hPa | 0 mm | - | 0 W/m² | - |
| 1777416924 | 9.44° C | 40% | 1023.9 hPa | 0 mm | - | 0 W/m² | - |
| 1777415125 | 9.44° C | 41% | 1023.6 hPa | 0 mm | - | 0 W/m² | - |
| 1777413926 | 9.44° C | 41% | 1023.6 hPa | 0 mm | - | 0 W/m² | - |
| 1777412727 | 10° C | 41% | 1023.7 hPa | 0 mm | - | 0 W/m² | - |
| 1777411528 | 10° C | 42% | 1023.5 hPa | 0 mm | - | 0 W/m² | - |
| 1777407331 | 11.11° C | 46% | 1023.2 hPa | 0 mm | - | 0 W/m² | - |
| 1777402534 | 11.67° C | 48% | 1022.6 hPa | 0 mm | - | 0 W/m² | - |
| 1777401335 | 12.22° C | 46% | 1022.5 hPa | 0 mm | - | 1 W/m² | - |
| 1777400136 | 12.78° C | 45% | 1022.1 hPa | 0 mm | - | 8 W/m² | - |
| 1777396539 | 15° C | 42% | 1021.5 hPa | 0 mm | - | 54 W/m² | - |
| 1777395939 | 15° C | 42% | 1021.4 hPa | 0 mm | - | 67 W/m² | - |
| 1777395339 | 15° C | 42% | 1021.3 hPa | 0 mm | - | 85 W/m² | - |
| 1777394740 | 15.56° C | 43% | 1021.3 hPa | 0 mm | - | 105 W/m² | - |
| 1777393540 | 15.56° C | 41% | 1021.3 hPa | 0 mm | - | 139 W/m² | - |
| 1777391742 | 16.11° C | 42% | 1021.3 hPa | 0 mm | - | 219 W/m² | - |
| 1777389343 | 17.22° C | 41% | 1021.3 hPa | 0 mm | - | 278 W/m² | - |
| 1777388839 | 16.67° C | 42% | 1021.2 hPa | 0 mm | - | 291 W/m² | - |
* Rain latest hour (hover to see other rain measurements)
** Current wind speed in m/s (hover to see current wind gust speed)